Time,TemperatureF,DewpointF,PressureIn,WindDirection,WindDirectionDegrees,WindSpeedMPH,WindSpeedGustMPH,Humidity,HourlyPrecipIn,Conditions,Clouds,dailyrainin,SolarRadiationWatts/m^2,SoftwareType,DateUTC
2013-03-14 00:04:00,55.5,52.3,29.98,East,96,0.0,3.0,89,0.00,CLR,OVC,0.00,0.0,WeatherDisplay:10.37,2013-03-13 11:04:00,
2013-03-14 00:19:00,55.5,52.9,29.98,East,95,1.0,4.0,91,0.00,CLR,OVC,0.00,0.0,WeatherDisplay:10.37,2013-03-13 11:19:00,
2013-03-14 00:34:00,55.8,53.2,29.98,East,95,1.0,7.0,91,0.00,CLR,OVC,0.00,0.0,WeatherDisplay:10.37,2013-03-13 11:34:00,
2013-03-14 00:49:00,56.1,53.5,29.98,East,95,5.0,7.0,91,0.00,FEW,OVC,0.00,0.0,WeatherDisplay:10.37,2013-03-13 11:49:00,
2013-03-14 01:04:00,56.2,53.3,29.97,East,90,0.0,4.0,90,0.00,CLR,OVC,0.00,0.0,WeatherDisplay:10.37,2013-03-13 12:04:00,
2013-03-14 01:19:00,56.0,53.4,29.97,East,100,5.0,7.0,91,0.00,CLR,OVC,0.00,0.0,WeatherDisplay:10.37,2013-03-13 12:19:00,
2013-03-14 01:34:00,56.5,53.6,29.97,East,86,2.0,7.0,90,0.00,CLR,OVC,0.00,0.0,WeatherDisplay:10.37,2013-03-13 12:34:00,
2013-03-14 01:49:00,56.4,53.5,29.96,East,98,0.0,4.0,90,0.00,CLR,OVC,0.00,0.0,WeatherDisplay:10.37,2013-03-13 12:49:00,
2013-03-14 02:04:00,56.5,53.9,29.96,ENE,72,1.0,7.0,91,0.00,CLR,OVC,0.00,0.0,WeatherDisplay:10.37,2013-03-13 13:04:00,
2013-03-14 02:19:00,56.7,54.1,29.94,East,84,1.0,4.0,91,0.00,CLR,OVC,0.00,0.0,WeatherDisplay:10.37,2013-03-13 13:19:00,
2013-03-14 02:34:00,56.9,54.6,29.94,East,91,3.0,9.0,92,0.00,CLR,OVC,0.00,0.0,WeatherDisplay:10.37,2013-03-13 13:34:00,
2013-03-14 02:49:00,57.1,54.5,29.94,East,98,0.0,8.0,91,0.00,CLR,OVC,0.00,0.0,WeatherDisplay:10.37,2013-03-13 13:49:00,
2013-03-14 03:05:00,57.0,54.4,29.93,East,90,0.0,4.0,91,0.00,CLR,OVC,0.00,0.0,WeatherDisplay:10.37,2013-03-13 14:05:00,
2013-03-14 03:20:00,56.9,54.3,29.93,East,99,1.0,4.0,91,0.00,CLR,OVC,0.00,0.0,WeatherDisplay:10.37,2013-03-13 14:20:00,
2013-03-14 03:35:00,57.1,54.8,29.93,East,99,3.0,7.0,92,0.00,FEW,OVC,0.00,0.0,WeatherDisplay:10.37,2013-03-13 14:35:00,
2013-03-14 03:50:00,57.3,54.7,29.93,ESE,103,1.0,8.0,91,0.00,CLR,OVC,0.00,0.0,WeatherDisplay:10.37,2013-03-13 14:50:00,
2013-03-14 04:05:00,57.4,54.8,29.92,East,88,1.0,8.0,91,0.00,CLR,OVC,0.00,0.0,WeatherDisplay:10.37,2013-03-13 15:05:00,
2013-03-14 04:20:00,57.6,54.7,29.91,East,85,2.0,9.0,90,0.00,CLR,OVC,0.00,0.0,WeatherDisplay:10.37,2013-03-13 15:20:00,
2013-03-14 04:35:00,57.5,54.6,29.91,NE,49,0.0,7.0,90,0.00,CLR,OVC,0.00,0.0,WeatherDisplay:10.37,2013-03-13 15:35:00,
2013-03-14 04:50:00,57.5,54.9,29.90,North,0,1.0,4.0,91,0.00,CLR,OVC,0.00,0.0,WeatherDisplay:10.37,2013-03-13 15:50:00,
2013-03-14 05:05:00,57.4,54.8,29.90,North,355,2.0,6.0,91,0.00,CLR,OVC,0.00,0.0,WeatherDisplay:10.37,2013-03-13 16:05:00,
2013-03-14 05:20:00,57.4,54.8,29.89,South,175,1.0,3.0,91,0.00,CLR,OVC,0.00,0.0,WeatherDisplay:10.37,2013-03-13 16:20:00,
2013-03-14 05:35:00,57.3,55.0,29.89,North,351,1.0,4.0,92,0.00,CLR,OVC,0.00,0.0,WeatherDisplay:10.37,2013-03-13 16:35:00,
2013-03-14 05:50:00,57.4,54.8,29.89,East,83,0.0,4.0,91,0.00,CLR,OVC,0.00,0.0,WeatherDisplay:10.37,2013-03-13 16:50:00,
2013-03-14 06:05:00,57.1,54.5,29.89,SSE,166,1.0,4.0,91,0.00,CLR,OVC,0.00,0.0,WeatherDisplay:10.37,2013-03-13 17:05:00,
2013-03-14 06:20:00,57.1,54.8,29.88,NNE,23,1.0,7.0,92,0.00,CLR,OVC,0.00,0.0,WeatherDisplay:10.37,2013-03-13 17:20:00,
2013-03-14 06:35:00,57.2,54.9,29.88,North,4,1.0,4.0,92,0.00,CLR,OVC,0.00,0.0,WeatherDisplay:10.37,2013-03-13 17:35:00,
2013-03-14 06:50:00,57.3,55.0,29.89,NW,313,1.0,4.0,92,0.00,CLR,OVC,0.00,0.0,WeatherDisplay:10.37,2013-03-13 17:50:00,
2013-03-14 07:05:00,57.4,55.1,29.89,NNW,339,2.0,9.0,92,0.00,CLR,OVC,0.00,0.0,WeatherDisplay:10.37,2013-03-13 18:05:00,
2013-03-14 07:20:00,57.4,55.1,29.89,NNE,20,1.0,4.0,92,0.00,BKN,OVC,0.00,0.0,WeatherDisplay:10.37,2013-03-13 18:20:00,
2013-03-14 07:35:00,57.5,55.2,29.89,NNE,20,3.0,8.0,92,0.00,BKN,OVC,0.00,11.8,WeatherDisplay:10.37,2013-03-13 18:35:00,
2013-03-14 07:50:00,57.8,55.5,29.89,North,1,3.0,7.0,92,0.00,BKN,OVC,0.00,20.2,WeatherDisplay:10.37,2013-03-13 18:50:00,
2013-03-14 08:05:00,58.2,55.6,29.89,NNE,18,2.0,10.0,91,0.00,BKN,OVC,0.00,27.1,WeatherDisplay:10.37,2013-03-13 19:05:00,
2013-03-14 08:20:00,58.7,56.1,29.89,NNE,33,2.0,9.0,91,0.00,BKN,OVC,0.00,50.8,WeatherDisplay:10.37,2013-03-13 19:20:00,
2013-03-14 08:35:00,59.2,56.6,29.89,North,11,1.0,7.0,91,0.00,BKN,OVC,0.00,61.2,WeatherDisplay:10.37,2013-03-13 19:35:00,
2013-03-14 08:50:00,60.1,57.2,29.89,North,8,2.0,7.0,90,0.00,BKN,OVC,0.00,68.2,WeatherDisplay:10.37,2013-03-13 19:50:00,
2013-03-14 09:05:00,61.0,57.8,29.89,NNE,30,2.0,9.0,89,0.00,BKN,OVC,0.00,180.3,WeatherDisplay:10.37,2013-03-13 20:05:00,
2013-03-14 09:20:00,62.2,58.0,29.89,NNE,22,2.0,8.0,86,0.00,FEW,OVC,0.00,265.2,WeatherDisplay:10.37,2013-03-13 20:20:00,
2013-03-14 09:35:00,63.8,58.9,29.89,NE,37,2.0,9.0,84,0.00,FEW,OVC,0.00,261.7,WeatherDisplay:10.37,2013-03-13 20:35:00,
2013-03-14 09:50:00,65.0,58.7,29.88,NNE,32,2.0,9.0,80,0.00,FEW,OVC,0.00,292.3,WeatherDisplay:10.37,2013-03-13 20:50:00,
2013-03-14 10:05:00,65.7,58.7,29.88,NE,52,7.0,14.0,78,0.00,FEW,OVC,0.00,324.3,WeatherDisplay:10.37,2013-03-13 21:05:00,
2013-03-14 10:20:00,66.2,58.8,29.88,NNE,24,3.0,9.0,77,0.00,FEW,OVC,0.00,346.6,WeatherDisplay:10.37,2013-03-13 21:20:00,
2013-03-14 10:35:00,66.6,59.2,29.87,East,87,3.0,20.0,77,0.00,FEW,OVC,0.00,390.5,WeatherDisplay:10.37,2013-03-13 21:35:00,
2013-03-14 10:50:00,66.6,58.8,29.87,East,86,5.0,20.0,76,0.00,FEW,OVC,0.00,404.4,WeatherDisplay:10.37,2013-03-13 21:50:00,
2013-03-14 11:05:00,67.6,59.3,29.87,NNW,346,5.0,10.0,75,0.00,FEW,OVC,0.00,475.4,WeatherDisplay:10.37,2013-03-13 22:05:00,
2013-03-14 11:20:00,68.1,59.9,29.85,NNE,22,3.0,16.0,75,0.00,FEW,OVC,0.00,506.0,WeatherDisplay:10.37,2013-03-13 22:20:00,
2013-03-14 11:35:00,68.9,59.5,29.86,NE,48,3.0,18.0,72,0.00,FEW,OVC,0.00,550.6,WeatherDisplay:10.37,2013-03-13 22:35:00,
2013-03-14 11:50:00,69.4,59.6,29.86,NNE,23,3.0,13.0,71,0.00,CLR,OVC,0.00,588.1,WeatherDisplay:10.37,2013-03-13 22:50:00,
2013-03-14 12:05:00,70.0,59.0,29.86,East,86,9.0,17.0,68,0.00,CLR,OVC,0.00,618.8,WeatherDisplay:10.37,2013-03-13 23:05:00,
2013-03-14 12:20:00,70.5,59.8,29.86,NE,46,5.0,10.0,69,0.00,CLR,OVC,0.00,652.2,WeatherDisplay:10.37,2013-03-13 23:20:00,
2013-03-14 12:35:00,70.5,59.4,29.85,East,86,3.0,13.0,68,0.00,CLR,OVC,0.00,679.3,WeatherDisplay:10.37,2013-03-13 23:35:00,
2013-03-14 12:50:00,70.8,60.1,29.84,ENE,59,3.0,17.0,69,0.00,CLR,OVC,0.00,703.7,WeatherDisplay:10.37,2013-03-13 23:50:00,
2013-03-14 13:05:00,70.5,59.4,29.83,ESE,122,5.0,17.0,68,0.00,CLR,OVC,0.00,725.3,WeatherDisplay:10.37,2013-03-14 00:05:00,
2013-03-14 13:20:00,69.9,58.8,29.83,East,90,14.0,21.0,68,0.00,CLR,OVC,0.00,747.5,WeatherDisplay:10.37,2013-03-14 00:20:00,
2013-03-14 13:35:00,70.5,59.9,29.84,East,90,5.0,17.0,69,0.00,CLR,OVC,0.00,767.7,WeatherDisplay:10.37,2013-03-14 00:35:00,
2013-03-14 13:50:00,71.2,60.1,29.83,ENE,75,5.0,12.0,68,0.00,CLR,OVC,0.00,781.6,WeatherDisplay:10.37,2013-03-14 00:50:00,
2013-03-14 14:05:00,71.2,60.5,29.82,ENE,73,3.0,18.0,69,0.00,CLR,OVC,0.00,798.3,WeatherDisplay:10.37,2013-03-14 01:05:00,
2013-03-14 14:20:00,70.6,60.3,29.82,East,90,3.0,20.0,70,0.00,CLR,OVC,0.00,798.3,WeatherDisplay:10.37,2013-03-14 01:20:00,
2013-03-14 14:35:00,71.9,60.8,29.82,East,87,10.0,17.0,68,0.00,CLR,OVC,0.00,805.3,WeatherDisplay:10.37,2013-03-14 01:35:00,
2013-03-14 14:50:00,72.3,61.1,29.82,East,92,3.0,17.0,68,0.00,CLR,OVC,0.00,805.3,WeatherDisplay:10.37,2013-03-14 01:50:00,
2013-03-14 15:05:00,70.9,60.2,29.81,ESE,118,7.0,18.0,69,0.00,CLR,OVC,0.00,798.3,WeatherDisplay:10.37,2013-03-14 02:05:00,
2013-03-14 15:20:00,71.8,60.7,29.82,SE,128,6.0,14.0,68,0.00,CLR,OVC,0.00,792.1,WeatherDisplay:10.37,2013-03-14 02:20:00,
2013-03-14 15:35:00,70.8,60.1,29.81,East,101,9.0,21.0,69,0.00,CLR,OVC,0.00,778.1,WeatherDisplay:10.37,2013-03-14 02:35:00,
2013-03-14 15:50:00,70.7,60.5,29.81,East,99,15.0,21.0,70,0.00,CLR,OVC,0.00,761.4,WeatherDisplay:10.37,2013-03-14 02:50:00,
2013-03-14 16:05:00,70.1,60.7,29.81,East,101,8.0,21.0,72,0.00,CLR,OVC,0.00,748.9,WeatherDisplay:10.37,2013-03-14 03:05:00,
2013-03-14 16:20:00,70.7,61.6,29.81,East,81,3.0,20.0,73,0.00,CLR,OVC,0.00,737.1,WeatherDisplay:10.37,2013-03-14 03:20:00,
2013-03-14 16:35:00,70.5,61.0,29.81,East,81,13.0,21.0,72,0.00,CLR,OVC,0.00,679.3,WeatherDisplay:10.37,2013-03-14 03:35:00,
2013-03-14 16:50:00,70.2,61.1,29.80,East,89,3.0,20.0,73,0.00,CLR,OVC,0.00,686.3,WeatherDisplay:10.37,2013-03-14 03:50:00,
2013-03-14 17:05:00,71.5,61.6,29.79,ESE,102,3.0,17.0,71,0.00,CLR,OVC,0.00,659.1,WeatherDisplay:10.37,2013-03-14 04:05:00,
2013-03-14 17:20:00,70.6,60.7,29.79,NE,48,12.0,17.0,71,0.00,CLR,OVC,0.00,621.5,WeatherDisplay:10.37,2013-03-14 04:20:00,
2013-03-14 17:35:00,70.4,61.0,29.79,ESE,112,14.0,20.0,72,0.00,CLR,OVC,0.00,563.8,WeatherDisplay:10.37,2013-03-14 04:35:00,
2013-03-14 17:50:00,69.8,61.1,29.79,East,85,7.0,17.0,74,0.00,CLR,OVC,0.00,530.4,WeatherDisplay:10.37,2013-03-14 04:50:00,
2013-03-14 18:05:00,68.5,60.6,29.79,East,100,3.0,18.0,76,0.00,CLR,OVC,0.00,503.2,WeatherDisplay:10.37,2013-03-14 05:05:00,
2013-03-14 18:20:00,67.2,60.1,29.80,ESE,104,6.0,17.0,78,0.00,FEW,OVC,0.00,159.4,WeatherDisplay:10.37,2013-03-14 05:20:00,
2013-03-14 18:35:00,65.7,59.7,29.80,ESE,105,10.0,14.0,81,0.00,CLR,OVC,0.00,130.9,WeatherDisplay:10.37,2013-03-14 05:35:00,
2013-03-14 18:50:00,65.1,60.2,29.80,ESE,107,2.0,14.0,84,0.00,CLR,OVC,0.00,270.1,WeatherDisplay:10.37,2013-03-14 05:50:00,
2013-03-14 19:05:00,65.3,60.0,29.79,ESE,103,8.0,17.0,83,0.00,CLR,OVC,0.00,254.7,WeatherDisplay:10.37,2013-03-14 06:05:00,
2013-03-14 19:20:00,64.9,59.9,29.79,ESE,103,8.0,21.0,84,0.00,CLR,OVC,0.00,59.2,WeatherDisplay:10.37,2013-03-14 06:20:00,
2013-03-14 19:35:00,63.9,59.6,29.78,ESE,102,6.0,17.0,86,0.00,SCT,OVC,0.00,25.8,WeatherDisplay:10.37,2013-03-14 06:35:00,
2013-03-14 19:50:00,63.3,59.3,29.78,East,100,7.0,14.0,87,0.00,SCT,OVC,0.00,4.9,WeatherDisplay:10.37,2013-03-14 06:50:00,
2013-03-14 20:05:00,62.8,59.2,29.78,East,95,10.0,14.0,88,0.00,CLR,OVC,0.00,0.0,WeatherDisplay:10.37,2013-03-14 07:05:00,
2013-03-14 20:20:00,62.5,59.2,29.78,East,83,5.0,12.0,89,0.00,CLR,OVC,0.00,0.0,WeatherDisplay:10.37,2013-03-14 07:20:00,
2013-03-14 20:35:00,62.2,58.9,29.78,East,79,2.0,10.0,89,0.00,CLR,OVC,0.00,0.0,WeatherDisplay:10.37,2013-03-14 07:35:00,
2013-03-14 20:50:00,61.9,58.6,29.79,NNW,345,1.0,4.0,89,0.00,CLR,OVC,0.00,0.0,WeatherDisplay:10.37,2013-03-14 07:50:00,
2013-03-14 21:05:00,61.7,58.8,29.80,SSE,155,0.0,3.0,90,0.00,CLR,OVC,0.00,0.0,WeatherDisplay:10.37,2013-03-14 08:05:00,
2013-03-14 21:20:00,61.7,59.0,29.80,NNW,339,1.0,4.0,91,0.00,CLR,OVC,0.00,0.0,WeatherDisplay:10.37,2013-03-14 08:20:00,
2013-03-14 21:35:00,61.7,59.0,29.80,ENE,62,2.0,9.0,91,0.00,CLR,OVC,0.00,0.0,WeatherDisplay:10.37,2013-03-14 08:35:00,
2013-03-14 21:50:00,61.6,58.9,29.81,ENE,65,1.0,4.0,91,0.00,CLR,OVC,0.00,0.0,WeatherDisplay:10.37,2013-03-14 08:50:00,
2013-03-14 22:05:00,61.5,58.8,29.81,East,89,1.0,8.0,91,0.00,CLR,OVC,0.00,0.0,WeatherDisplay:10.37,2013-03-14 09:05:00,
2013-03-14 22:20:00,61.4,58.7,29.82,NE,38,1.0,9.0,91,0.00,CLR,OVC,0.00,0.0,WeatherDisplay:10.37,2013-03-14 09:20:00,
2013-03-14 22:35:00,61.3,58.7,29.82,NNE,21,0.0,7.0,91,0.00,CLR,OVC,0.00,0.0,WeatherDisplay:10.37,2013-03-14 09:35:00,
2013-03-14 22:50:00,61.2,58.8,29.82,NNE,21,0.0,4.0,92,0.00,CLR,OVC,0.00,0.0,WeatherDisplay:10.37,2013-03-14 09:50:00,
2013-03-14 23:05:00,61.0,58.7,29.82,NE,34,0.0,3.0,92,0.00,CLR,OVC,0.00,0.0,WeatherDisplay:10.37,2013-03-14 10:05:00,
2013-03-14 23:20:00,61.0,59.0,29.82,NNE,12,0.0,3.0,93,0.00,CLR,OVC,0.00,0.0,WeatherDisplay:10.37,2013-03-14 10:20:00,
2013-03-14 23:35:00,60.8,58.8,29.83,NNE,14,0.0,3.0,93,0.00,CLR,OVC,0.00,0.0,WeatherDisplay:10.37,2013-03-14 10:35:00,
2013-03-14 23:50:00,60.3,57.7,29.83,NNE,14,0.0,1.0,91,0.00,CLR,OVC,0.00,0.0,WeatherDisplay:10.37,2013-03-14 10:50:00,